Time,TemperatureF,DewpointF,PressureIn,WindDirection,WindDirectionDegrees,WindSpeedMPH,WindSpeedGustMPH,Humidity,HourlyPrecipIn,Conditions,Clouds,dailyrainin,SoftwareType,DateUTC
2013-09-05 00:00:00,73.0,-99.9,-100.00,West,269,7.0,15.0,-999,-99.99,,,-99.99,,2013-09-05 07:00:00,
2013-09-05 00:23:00,72.0,-99.9,-100.00,WSW,257,7.0,19.0,-999,-99.99,,,-99.99,,2013-09-05 07:23:00,
2013-09-05 00:42:00,73.0,-99.9,-100.00,West,269,7.0,15.0,-999,-99.99,,,-99.99,,2013-09-05 07:42:00,
2013-09-05 00:52:00,73.0,-99.9,-100.00,West,269,7.0,15.0,-999,-99.99,,,-99.99,,2013-09-05 07:52:00,
2013-09-05 01:10:00,72.0,-99.9,-100.00,WNW,286,13.0,13.0,-999,-99.99,,,-99.99,,2013-09-05 08:10:00,
2013-09-05 01:52:00,72.0,-99.9,-100.00,WNW,286,13.0,13.0,-999,-99.99,,,-99.99,,2013-09-05 08:52:00,
2013-09-05 02:00:00,72.0,-99.9,-100.00,WSW,254,4.0,11.0,-999,-99.99,,,-99.99,,2013-09-05 09:00:00,
2013-09-05 02:03:00,72.0,-99.9,-100.00,WNW,286,13.0,13.0,-999,-99.99,,,-99.99,,2013-09-05 09:03:00,
2013-09-05 02:43:00,69.0,-99.9,-100.00,West,271,7.0,12.0,-999,-99.99,,,-99.99,,2013-09-05 09:43:00,
2013-09-05 02:54:00,72.0,-99.9,-100.00,WSW,254,4.0,11.0,-999,-99.99,,,-99.99,,2013-09-05 09:54:00,
2013-09-05 03:00:00,74.0,-99.9,-100.00,WNW,283,9.0,10.0,-999,-99.99,,,-99.99,,2013-09-05 10:00:00,
2013-09-05 03:43:00,74.0,-99.9,-100.00,WNW,283,9.0,10.0,-999,-99.99,,,-99.99,,2013-09-05 10:43:00,
2013-09-05 03:53:00,74.0,-99.9,-100.00,WNW,283,9.0,10.0,-999,-99.99,,,-99.99,,2013-09-05 10:53:00,
2013-09-05 04:00:00,71.0,-99.9,-100.00,WNW,301,6.0,11.0,-999,-99.99,,,-99.99,,2013-09-05 11:00:00,
2013-09-05 04:22:00,72.0,-99.9,-100.00,West,271,6.0,15.0,-999,-99.99,,,-99.99,,2013-09-05 11:22:00,
2013-09-05 04:43:00,71.0,-99.9,-100.00,WNW,301,6.0,11.0,-999,-99.99,,,-99.99,,2013-09-05 11:43:00,
2013-09-05 04:52:00,71.0,-99.9,-100.00,WNW,301,6.0,11.0,-999,-99.99,,,-99.99,,2013-09-05 11:52:00,
2013-09-05 05:00:00,73.0,-99.9,-100.00,West,275,7.0,13.0,-999,-99.99,,,-99.99,,2013-09-05 12:00:00,
2013-09-05 05:22:00,70.0,-99.9,-100.00,NW,317,8.0,10.0,-999,-99.99,,,-99.99,,2013-09-05 12:22:00,
2013-09-05 05:42:00,73.0,-99.9,-100.00,West,275,7.0,13.0,-999,-99.99,,,-99.99,,2013-09-05 12:42:00,
2013-09-05 05:52:00,73.0,-99.9,-100.00,West,275,7.0,13.0,-999,-99.99,,,-99.99,,2013-09-05 12:52:00,
2013-09-05 06:00:00,73.0,-99.9,-100.00,West,278,6.0,16.0,-999,-99.99,,,-99.99,,2013-09-05 13:00:00,
2013-09-05 06:42:00,73.0,-99.9,-100.00,West,278,6.0,16.0,-999,-99.99,,,-99.99,,2013-09-05 13:42:00,
2013-09-05 06:53:00,73.0,-99.9,-100.00,West,278,6.0,16.0,-999,-99.99,,,-99.99,,2013-09-05 13:53:00,
2013-09-05 07:22:00,69.0,-99.9,-100.00,WNW,288,10.0,10.0,-999,-99.99,,,-99.99,,2013-09-05 14:22:00,
2013-09-05 07:42:00,69.0,-99.9,-100.00,WNW,283,8.0,8.0,-999,-99.99,,,-99.99,,2013-09-05 14:42:00,
2013-09-05 07:52:00,69.0,-99.9,-100.00,WNW,283,8.0,8.0,-999,-99.99,,,-99.99,,2013-09-05 14:52:00,
2013-09-05 08:00:00,69.0,-99.9,-100.00,West,272,10.0,12.0,-999,-99.99,,,-99.99,,2013-09-05 15:00:00,
2013-09-05 08:44:00,69.0,-99.9,-100.00,West,272,10.0,12.0,-999,-99.99,,,-99.99,,2013-09-05 15:44:00,
2013-09-05 08:54:00,69.0,-99.9,-100.00,West,272,10.0,12.0,-999,-99.99,,,-99.99,,2013-09-05 15:54:00,
2013-09-05 09:00:00,71.0,-99.9,-100.00,West,280,15.0,18.0,-999,-99.99,,,-99.99,,2013-09-05 16:00:00,
2013-09-05 09:24:00,70.0,-99.9,-100.00,West,278,15.0,16.0,-999,-99.99,,,-99.99,,2013-09-05 16:24:00,
2013-09-05 09:43:00,71.0,-99.9,-100.00,West,280,15.0,18.0,-999,-99.99,,,-99.99,,2013-09-05 16:43:00,
2013-09-05 09:54:00,71.0,-99.9,-100.00,West,280,15.0,18.0,-999,-99.99,,,-99.99,,2013-09-05 16:54:00,
2013-09-05 10:23:00,71.0,-99.9,-100.00,WSW,253,12.0,14.0,-999,-99.99,,,-99.99,,2013-09-05 17:23:00,
2013-09-05 10:43:00,70.0,-99.9,-100.00,West,275,6.0,16.0,-999,-99.99,,,-99.99,,2013-09-05 17:43:00,
2013-09-05 10:52:00,71.0,-99.9,-100.00,WSW,257,8.0,15.0,-999,-99.99,,,-99.99,,2013-09-05 17:52:00,
2013-09-05 11:00:00,73.0,-99.9,-100.00,West,264,11.0,14.0,-999,-99.99,,,-99.99,,2013-09-05 18:00:00,
2013-09-05 11:03:00,71.0,-99.9,-100.00,WSW,257,8.0,15.0,-999,-99.99,,,-99.99,,2013-09-05 18:03:00,
2013-09-05 11:43:00,73.0,-99.9,-100.00,West,264,11.0,14.0,-999,-99.99,,,-99.99,,2013-09-05 18:43:00,
2013-09-05 11:52:00,73.0,-99.9,-100.00,West,264,11.0,14.0,-999,-99.99,,,-99.99,,2013-09-05 18:52:00,
2013-09-05 12:00:00,75.0,-99.9,-100.00,SSW,205,6.0,14.0,-999,-99.99,,,-99.99,,2013-09-05 19:00:00,
2013-09-05 12:22:00,76.0,-99.9,-100.00,West,281,14.0,19.0,-999,-99.99,,,-99.99,,2013-09-05 19:22:00,
2013-09-05 12:42:00,75.0,-99.9,-100.00,SSW,205,6.0,14.0,-999,-99.99,,,-99.99,,2013-09-05 19:42:00,
2013-09-05 12:52:00,75.0,-99.9,-100.00,SSW,205,6.0,14.0,-999,-99.99,,,-99.99,,2013-09-05 19:52:00,
2013-09-05 13:00:00,75.0,-99.9,-100.00,SW,229,8.0,15.0,-999,-99.99,,,-99.99,,2013-09-05 20:00:00,
2013-09-05 13:43:00,75.0,-99.9,-100.00,SW,229,8.0,15.0,-999,-99.99,,,-99.99,,2013-09-05 20:43:00,
2013-09-05 13:52:00,75.0,-99.9,-100.00,SW,229,8.0,15.0,-999,-99.99,,,-99.99,,2013-09-05 20:52:00,
2013-09-05 14:20:00,76.0,-99.9,-100.00,West,264,13.0,21.0,-999,-99.99,,,-99.99,,2013-09-05 21:20:00,
2013-09-05 14:22:00,74.0,-99.9,-100.00,WNW,300,10.0,17.0,-999,-99.99,,,-99.99,,2013-09-05 21:22:00,
2013-09-05 14:44:00,73.0,-99.9,-100.00,WSW,249,7.0,20.0,-999,-99.99,,,-99.99,,2013-09-05 21:44:00,
2013-09-05 14:54:00,73.0,-99.9,-100.00,WSW,249,7.0,20.0,-999,-99.99,,,-99.99,,2013-09-05 21:54:00,
2013-09-05 15:00:00,76.0,-99.9,-100.00,SW,221,12.0,21.0,-999,-99.99,,,-99.99,,2013-09-05 22:00:00,
2013-09-05 15:13:00,76.0,-99.9,-100.00,West,264,13.0,21.0,-999,-99.99,,,-99.99,,2013-09-05 22:13:00,
2013-09-05 15:53:00,76.0,-99.9,-100.00,SW,221,12.0,21.0,-999,-99.99,,,-99.99,,2013-09-05 22:53:00,
2013-09-05 16:20:00,76.0,-99.9,-100.00,WNW,292,10.0,19.0,-999,-99.99,,,-99.99,,2013-09-05 23:20:00,
2013-09-05 16:42:00,73.0,-99.9,-100.00,NW,307,7.0,23.0,-999,-99.99,,,-99.99,,2013-09-05 23:42:00,
2013-09-05 16:53:00,73.0,-99.9,-100.00,NW,307,7.0,23.0,-999,-99.99,,,-99.99,,2013-09-05 23:53:00,
2013-09-05 17:00:00,75.0,-99.9,-100.00,WSW,247,15.0,26.0,-999,-99.99,,,-99.99,,2013-09-06 00:00:00,
2013-09-05 17:12:00,76.0,-99.9,-100.00,WNW,292,10.0,19.0,-999,-99.99,,,-99.99,,2013-09-06 00:12:00,
2013-09-05 17:42:00,75.0,-99.9,-100.00,WSW,247,15.0,26.0,-999,-99.99,,,-99.99,,2013-09-06 00:42:00,
2013-09-05 17:52:00,75.0,-99.9,-100.00,WSW,247,15.0,26.0,-999,-99.99,,,-99.99,,2013-09-06 00:52:00,
2013-09-05 18:00:00,74.0,-99.9,-100.00,WNW,283,15.0,20.0,-999,-99.99,,,-99.99,,2013-09-06 01:00:00,
2013-09-05 18:22:00,73.0,-99.9,-100.00,West,275,9.0,15.0,-999,-99.99,,,-99.99,,2013-09-06 01:22:00,
2013-09-05 18:42:00,73.0,-99.9,-100.00,West,281,6.0,26.0,-999,-99.99,,,-99.99,,2013-09-06 01:42:00,
2013-09-05 18:52:00,74.0,-99.9,-100.00,WNW,283,15.0,20.0,-999,-99.99,,,-99.99,,2013-09-06 01:52:00,
2013-09-05 19:10:00,66.0,-99.9,-100.00,West,268,2.0,5.0,-999,-99.99,,,-99.99,,2013-09-06 02:10:00,
2013-09-05 19:42:00,67.0,-99.9,-100.00,WSW,244,1.0,2.0,-999,-99.99,,,-99.99,,2013-09-06 02:42:00,
2013-09-05 19:52:00,66.0,-99.9,-100.00,West,268,2.0,5.0,-999,-99.99,,,-99.99,,2013-09-06 02:52:00,
2013-09-05 20:00:00,65.0,-99.9,-100.00,WSW,245,7.0,11.0,-999,-99.99,,,-99.99,,2013-09-06 03:00:00,
2013-09-05 20:02:00,66.0,-99.9,-100.00,West,268,2.0,5.0,-999,-99.99,,,-99.99,,2013-09-06 03:02:00,
2013-09-05 20:44:00,65.0,-99.9,-100.00,WSW,245,7.0,11.0,-999,-99.99,,,-99.99,,2013-09-06 03:44:00,
2013-09-05 20:55:00,65.0,-99.9,-100.00,WSW,245,7.0,11.0,-999,-99.99,,,-99.99,,2013-09-06 03:55:00,
2013-09-05 21:00:00,65.0,-99.9,-100.00,SW,236,11.0,12.0,-999,-99.99,,,-99.99,,2013-09-06 04:00:00,
2013-09-05 21:44:00,65.0,-99.9,-100.00,SW,236,11.0,12.0,-999,-99.99,,,-99.99,,2013-09-06 04:44:00,
2013-09-05 21:54:00,65.0,-99.9,-100.00,SW,236,11.0,12.0,-999,-99.99,,,-99.99,,2013-09-06 04:54:00,
2013-09-05 22:00:00,64.0,-99.9,-100.00,West,279,4.0,9.0,-999,-99.99,,,-99.99,,2013-09-06 05:00:00,
2013-09-05 22:43:00,64.0,-99.9,-100.00,West,279,4.0,9.0,-999,-99.99,,,-99.99,,2013-09-06 05:43:00,
2013-09-05 22:52:00,64.0,-99.9,-100.00,West,279,4.0,9.0,-999,-99.99,,,-99.99,,2013-09-06 05:52:00,
2013-09-05 23:00:00,62.0,-99.9,-100.00,West,275,5.0,7.0,-999,-99.99,,,-99.99,,2013-09-06 06:00:00,
2013-09-05 23:42:00,62.0,-99.9,-100.00,West,275,5.0,7.0,-999,-99.99,,,-99.99,,2013-09-06 06:42:00,
2013-09-05 23:53:00,62.0,-99.9,-100.00,West,275,5.0,7.0,-999,-99.99,,,-99.99,,2013-09-06 06:53:00,